Tracking 18793 objects as of 26-September-2017
HD Live streaming from Space Station
objects crossing your sky now

OPS 8314 (2)

Track OPS 8314 (2) now!
10-day predictions
OPS 8314 (2) is classified as:


NORAD ID: 6822
Int'l Code: 1972-079C
Perigee: 1,426.3 km
Apogee: 1,471.0 km
Inclination: 95.6 °
Period: 114.7 minutes
Semi major axis: 7819 km
RCS: 0.3198 m2 (medium)
Launch date: October 10, 1972
Source: United States (US)
Launch site: AIR FORCE WESTERN TEST RANGE (AFWTR)
aabbcc
Your satellite tracking list
Your tracking list is empty





NASA's NSSDC Master Catalog

Two Line Element Set (TLE):
1  6822U 72079C   17268.96495847 -.00000004 +00000-0 +52617-4 0  9999
2  6822 095.6423 298.4833 0028562 305.2249 116.0471 12.55520148059865
Source of the keplerian elements: AFSPC